Zermatt, Switzerland 16 day weather forecast

Slopes altitude range 1620 m - 3820m

Number of lifts: 34 Pistes: 200km

In some cases the lift and piste totals shown are for the ski domain (e.g. Three Valleys) rather than individual resort (e.g. Courchevel)

Overview

The 16 day weather forecast is fully updated 4 times every day.

    • Wed 19 DEC 2018
    • Wed 19
    • -8C -6C
    • Thu 20 DEC 2018
    • Thu 20
    • -11C -4C
    • Fri 21 DEC 2018
    • Fri 21
    • -6C -1C
    • Sat 22 DEC 2018
    • Sat 22
    • -1C 1C
    • Sun 23 DEC 2018
    • Sun 23
    • -3C 2C
    • Mon 24 DEC 2018
    • Mon 24
    • -2C 3C
    • Tue 25 DEC 2018
    • Tue 25
    • -2C 2C
    • Wed 26 DEC 2018
    • Wed 26
    • -4C -1C
    • Thu 27 DEC 2018
    • Thu 27
    • -5C -1C
    • Fri 28 DEC 2018
    • Fri 28
    • -6C 0C
    • Sat 29 DEC 2018
    • Sat 29
    • 0C 5C
    • Sun 30 DEC 2018
    • Sun 30
    • 0C 6C
    • Mon 31 DEC 2018
    • Mon 31
    • -1C 4C
    • Tue 01 JAN 2019
    • Tue 01
    • -2C 5C
    • Wed 02 JAN 2019
    • Wed 02
    • -4C 1C
    • Thu 03 JAN 2019
    • Thu 03
    • -3C 4C

Date:

Time Type 0°C level Temp Chill Snow Cloud Speed Gust Dir Press
3:00 1230m -7°C -7_5 0cm 98% 5mph 5mph 1024mB
6:00 1079m -8°C -8_5 0cm 99% 5mph 5mph 1023mB
9:00 1242m -8°C -8_4 0cm 98% 4mph 5mph 1023mB
12:00 1416m -6°C -6_5 0cm 82% 5mph 5mph 1021mB
15:00 1225m -6°C -6_5 1cm 97% 5mph 7mph 1020mB
18:00 1246m -6°C -6_2 3cm 98% 2mph 2mph 1020mB
21:00 1304m -7°C -7_2 3cm 100% 2mph 3mph 1021mB
0:00 1350m -7°C -7_4 3cm 100% 4mph 5mph 1021mB
3:00 881m -9°C -9_7 1cm 77% 7mph 7mph 1022mB
6:00 604m -11°C -11_8 1cm 56% 8mph 8mph 1024mB
9:00 1103m -11°C -11_8 0cm 6% 8mph 7mph 1024mB
12:00 1709m -4°C -4_5 0cm 6% 5mph 6mph 1023mB
15:00 1184m -4°C -4_5 0cm 3% 5mph 6mph 1023mB
18:00 717m -4°C -4_10 0cm 3% 10mph 9mph 1026mB
21:00 736m -10°C -10_9 0cm 2% 9mph 9mph 1028mB
0:00 884m -10°C -10_9 0cm 49% 9mph 9mph 1028mB
3:00 1001m -9°C -9_8 0cm 91% 8mph 8mph 1026mB
6:00 1355m -9°C -9_7 0cm 89% 7mph 7mph 1026mB
9:00 1753m -6°C -6_5 1cm 88% 5mph 5mph 1025mB
12:00 2115m -1°C -1_4 1cm 85% 4mph 6mph 1024mB
15:00 2155m 0°C 0_6 1cm 96% 6mph 6mph 1023mB
18:00 1910m 0°C 0_7 1cm 98% 7mph 8mph 1023mB
21:00 1904m -3°C -3_8 0cm 99% 8mph 8mph 1023mB
0:00 2396m -3°C -3_8 1cm 98% 8mph 8mph 1022mB
3:00 2284m -1°C -1_7 1cm 90% 7mph 7mph 1022mB
6:00 2437m -1°C -1_9 1cm 92% 9mph 9mph 1022mB
9:00 2414m -1°C -1_10 0cm 60% 10mph 11mph 1022mB
12:00 2558m 1°C 1_9 0cm 45% 9mph 11mph 1021mB
15:00 2252m 1°C 1_11 0cm 10% 11mph 11mph 1022mB
18:00 1701m 1°C 1_13 0cm 21% 13mph 13mph 1024mB
21:00 1561m -5°C -5_13 0cm 50% 13mph 12mph 1025mB
0:00 1624m -5°C -5_12 0cm 52% 12mph 12mph 1026mB
3:00 1755m -4°C -4_12 0cm 60% 12mph 12mph 1025mB
6:00 2052m -4°C -4_12 0cm 65% 12mph 12mph 1026mB
9:00 2369m -3°C -3_10 0cm 85% 10mph 11mph 1026mB
12:00 2616m 2°C 2_7 0cm 83% 7mph 8mph 1025mB
15:00 2629m 2°C 2_9 0cm 46% 9mph 10mph 1025mB
18:00 2138m 2°C 2_10 0cm 41% 10mph 10mph 1026mB
21:00 2097m -3°C -3_11 0cm 22% 11mph 11mph 1027mB
0:00 2154m -3°C -3_11 0cm 13% 11mph 11mph 1027mB
3:00 2186m -2°C -2_11 0cm 42% 11mph 11mph 1026mB
6:00 2183m -2°C -2_12 0cm 50% 12mph 12mph 1026mB
9:00 2465m -2°C -2_11 0cm 86% 11mph 12mph 1027mB
12:00 2975m 3°C 3_8 0cm 90% 8mph 9mph 1026mB
15:00 2963m 3°C 3_8 0cm 95% 8mph 9mph 1026mB
18:00 2356m 3°C 3_9 0cm 94% 9mph 9mph 1028mB
21:00 2332m -1°C -1_8 0cm 94% 8mph 8mph 1028mB
0:00 2260m -2°C -2_7 0cm 95% 7mph 7mph 1028mB
3:00 2226m -2°C -2_7 0cm 94% 7mph 7mph 1026mB
6:00 2230m -2°C -2_8 0cm 95% 8mph 8mph 1026mB
9:00 2583m -2°C -2_6 0cm 98% 6mph 6mph 1025mB
12:00 3135m 2°C 2_2 0cm 98% 2mph 3mph 1022mB
15:00 2552m 2°C 2_2 0cm 99% 2mph 3mph 1021mB
18:00 2126m 2°C 2_3 0cm 98% 3mph 3mph 1022mB
21:00 1781m -3°C -3_3 0cm 97% 3mph 4mph 1023mB
0:00 1601m -4°C -4_3 0cm 95% 3mph 4mph 1023mB
3:00 1703m -4°C -4_2 0cm 96% 2mph 2mph 1023mB
6:00 1652m -4°C -4_5 1cm 97% 5mph 5mph 1023mB
9:00 1950m -4°C -4_5 1cm 96% 5mph 6mph 1024mB
12:00 2108m -1°C -1_5 1cm 97% 5mph 6mph 1023mB
15:00 2050m -1°C -1_5 1cm 97% 5mph 6mph 1022mB
18:00 1799m -1°C -1_6 1cm 97% 6mph 7mph 1024mB
21:00 1721m -4°C -4_7 1cm 96% 7mph 7mph 1025mB
0:00 1678m -4°C -4_6 1cm 97% 6mph 7mph 1025mB
3:00 1593m -4°C -4_7 1cm 95% 7mph 7mph 1025mB
6:00 1512m -5°C -5_7 1cm 95% 7mph 7mph 1025mB
9:00 1816m -5°C -5_6 1cm 96% 6mph 6mph 1026mB
12:00 2062m -1°C -1_4 1cm 96% 4mph 5mph 1025mB
15:00 1840m -1°C -1_5 1cm 97% 5mph 6mph 1025mB
18:00 1333m -1°C -1_8 1cm 93% 8mph 8mph 1026mB
21:00 1376m -6°C -6_7 1cm 58% 7mph 7mph 1027mB
0:00 1646m -6°C -6_7 1cm 74% 7mph 7mph 1027mB
3:00 1613m -4°C -4_7 1cm 94% 7mph 8mph 1027mB
6:00 1417m -6°C -6_9 1cm 60% 9mph 9mph 1028mB
9:00 1846m -6°C -6_9 0cm 35% 9mph 9mph 1029mB
12:00 2237m 0°C 0_7 0cm 23% 7mph 9mph 1028mB
15:00 2031m 0°C 0_8 0cm 8% 8mph 8mph 1028mB
18:00 1522m 0°C 0_9 0cm 4% 9mph 10mph 1030mB
Morning 0mm 0 2430m -2°C -2_9 0cm 49% 9mph 12mph 1031mB
Afternoon 0.0520833mm 0 2735m 5°C 5_12 0cm 67% 12mph 19mph 1030mB
Morning 0mm 0 2689m 0°C 0_10 0cm 5% 10mph 15mph 1030mB
Afternoon 0mm 0 2523m 6°C 6_3 0cm 85% 3mph 4mph 1031mB
Morning 0mm 0 2387m 0°C 0_6 0cm 100% 6mph 7mph 1033mB
Afternoon 0.00520833mm 0 2243m 4°C 4_5 0cm 85% 5mph 7mph 1036mB
Morning 0mm 0 2473m -1°C -1_6 0cm 10% 6mph 7mph 1035mB
Afternoon 0mm 0 1663m 5°C 5_2 0cm 1% 2mph 4mph 1035mB
Morning 0.00520833mm 0 1359m -4°C -4_3 0cm 37% 3mph 5mph 1037mB
Afternoon 0mm 0 1521m 1°C 1_4 0cm 26% 4mph 5mph 1037mB
Morning 0mm 0 1616m -3°C -3_6 0cm 1% 6mph 7mph 1037mB
Afternoon 0mm 0 1790m 4°C 4_6 0cm 36% 6mph 6mph 1036mB

16 day outlook at a glance

Forecast issued: 19/12/2018 04:21:01

Chat

Your comments and questions. In a resort? Let us know what it's like!


Characters left 250

For terms and conditions see Readers Comments on the Cookie and privacy policy page.